Location: Karcze
(52.0945°N, 22.4786°E)
Time: 22:26:52
(UTC+00:00)

A-11 Canister half - Pass Details

Date: 01 August 2021
Orbit: 1515 x 1685 km, 47.2° (Epoch: 19 September)

Event Time Altitude Azimuth Distance (km) Brightness Sun altitude
Rises 21:00:52 0° 285° (WNW) 4,901 12.2 -17.1°
Reaches altitude 10° 21:04:12 10° 278° (W) 3,928 11.5 -17.3°
Maximum altitude 21:13:24 42° 213° (SSW) 2,262 9.6 -17.8°
Enters shadow 21:18:47 25° 161° (SSE) 2,947 9.8 -18.1°
Drops below altitude 10° 21:22:38 10° 147° (SSE) 3,936 - -18.3°
Sets 21:26:00 0° 141° (SE) 4,913 - -18.5°
